Manassas, VA

7:06 PM EDT on March 27, 2017 (GMT -0400)
Manassas Regional-Davis

Weather History for KHEF - November, 2012

Change the Weather History Date:

Thursday, November 8, 2012

  Actual Average Record
Temperature  
Mean Temperature 46 °F -  
Max Temperature 55 °F 56 °F 73 °F (1996)
Min Temperature 37 °F 33 °F 23 °F (2007)
Degree Days  
Heating Degree Days 19    
Moisture  
Dew Point 22 °F    
Average Humidity 42    
Maximum Humidity 57    
Minimum Humidity 18    
Precipitation  
Precipitation 0.00 in - - ()
Sea Level Pressure  
Sea Level Pressure 29.98 in    
Wind  
Wind Speed 10 mph (NNW)    
Max Wind Speed 20 mph    
Max Gust Speed 28 mph    
Visibility 10 miles    
Events      
Averages and records for this station are not official NWS values.
T = Trace of Precipitation, MM = Missing Value Source: NWS Daily Summary

Daily Weather History Graph

Daily Weather History Graph

Search for Another Location

Airport or City:

Trip Planner

Search our weather history database for the weather conditions in past years. The results will help you decide how hot, cold, wet, or windy it might be!

Date:

Astronomy

Nov. 08, 2012 Rise Set
Actual Time 6:45 AM EST 5:02 PM EST
Civil Twilight 6:17 AM EST 5:30 PM EST
Nautical Twilight 5:45 AM EST 6:01 PM EST
Astronomical Twilight 5:14 AM EST 6:33 PM EST
Moon 12:42 AM EST (11/8) 1:38 PM EST (11/8)
Length of Visible Light 11h 12m
Length of Day
10h 16m
Waning Crescent, 33% of the Moon is Illuminated
Nov 8
Waning Crescent
Nov 13
New
Nov 20
First Quarter
Nov 28
Full
Dec 6
Last Quarter

Hourly Weather History & Observations

Time (EST) Temp. Windchill Dew Point Humidity Pressure Visibility Wind Dir Wind Speed Gust Speed Precip Events Conditions
12:15 AM 42.8 °F 37.5 °F 23.0 °F 46% 29.92 in 10.0 mi NNW 9.2 mph - N/A   Overcast
12:35 AM 42.8 °F 37.5 °F 21.2 °F 42% 29.92 in 10.0 mi NNW 9.2 mph 16.1 mph N/A   Overcast
12:55 AM 42.8 °F 37.0 °F 21.2 °F 42% 29.92 in 10.0 mi NNW 10.4 mph - N/A   Overcast
1:15 AM 42.8 °F 37.0 °F 21.2 °F 42% 29.92 in 10.0 mi NNW 10.4 mph - N/A   Overcast
1:35 AM 42.8 °F 37.5 °F 21.2 °F 42% 29.93 in 10.0 mi NNW 9.2 mph - N/A   Overcast
1:55 AM 41.0 °F 34.7 °F 21.2 °F 45% 29.93 in 10.0 mi NNW 10.4 mph - N/A   Overcast
2:15 AM 41.0 °F 34.7 °F 21.2 °F 45% 29.93 in 10.0 mi NNW 10.4 mph - N/A   Overcast
2:35 AM 41.0 °F 34.7 °F 19.4 °F 42% 29.93 in 10.0 mi NNW 10.4 mph - N/A   Overcast
2:55 AM 42.8 °F 36.6 °F 19.4 °F 39% 29.92 in 10.0 mi NW 11.5 mph - N/A   Overcast
3:15 AM 42.8 °F 37.0 °F 19.4 °F 39% 29.92 in 10.0 mi NW 10.4 mph - N/A   Mostly Cloudy
3:35 AM 42.8 °F 38.0 °F 19.4 °F 39% 29.92 in 10.0 mi NW 8.1 mph - N/A   Mostly Cloudy
3:55 AM 41.0 °F 38.0 °F 19.4 °F 42% 29.92 in 10.0 mi NW 4.6 mph - N/A   Clear
4:15 AM 41.0 °F 36.4 °F 19.4 °F 42% 29.92 in 10.0 mi NNW 6.9 mph - N/A   Clear
4:35 AM 41.0 °F 36.4 °F 19.4 °F 42% 29.93 in 10.0 mi NW 6.9 mph - N/A   Clear
4:55 AM 39.2 °F 35.9 °F 21.2 °F 49% 29.93 in 10.0 mi NNW 4.6 mph - N/A   Clear
5:15 AM 39.2 °F 35.9 °F 21.2 °F 49% 29.93 in 10.0 mi North 4.6 mph - N/A   Clear
5:35 AM 37.4 °F 34.9 °F 21.2 °F 52% 29.93 in 10.0 mi NNW 3.5 mph - N/A   Clear
5:55 AM 37.4 °F 33.8 °F 21.2 °F 52% 29.94 in 10.0 mi NW 4.6 mph - N/A   Clear
6:15 AM 37.4 °F 31.4 °F 21.2 °F 52% 29.94 in 10.0 mi NW 8.1 mph - N/A   Clear
7:45 AM 41.0 °F 35.8 °F 19.4 °F 42% 29.96 in 10.0 mi NNW 8.1 mph - N/A   Clear
8:45 AM 44.6 °F 37.4 °F 15.8 °F 31% 29.99 in 10.0 mi NNW 16.1 mph 21.9 mph N/A   Clear
9:45 AM 46.4 °F 40.1 °F 14.0 °F 27% 29.99 in 10.0 mi NNW 15.0 mph 24.2 mph N/A   Clear
10:50 AM 50.0 °F - 14.0 °F 24% 29.99 in 10.0 mi NNW 19.6 mph 24.2 mph N/A   Clear
11:45 AM 53.6 °F - 15.8 °F 22% 29.98 in 10.0 mi NNW 15.0 mph 25.3 mph N/A   Clear
12:45 PM 53.6 °F - 12.2 °F 19% 29.96 in 10.0 mi NNW 11.5 mph 23.0 mph N/A   Clear
1:45 PM 55.4 °F - 14.0 °F 20% 29.95 in 10.0 mi NW 16.1 mph 24.2 mph N/A   Clear
2:45 PM 55.4 °F - 12.2 °F 18% 29.95 in 10.0 mi NNW 17.3 mph 27.6 mph N/A   Clear
3:45 PM 53.6 °F - 14.0 °F 21% 29.96 in 10.0 mi NNW 16.1 mph 25.3 mph N/A   Clear
4:45 PM 51.8 °F - 14.0 °F 22% 29.98 in 10.0 mi NNW 10.4 mph - N/A   Clear
5:45 PM 46.4 °F 41.5 °F 17.6 °F 32% 30.01 in 10.0 mi NNW 10.4 mph - N/A   Clear
6:50 PM 46.4 °F 41.9 °F 21.2 °F 37% 30.03 in 10.0 mi NNW 9.2 mph - N/A   Clear
7:55 PM 46.4 °F 41.1 °F 26.6 °F 46% 30.05 in 10.0 mi NW 11.5 mph - N/A   Clear
8:15 PM 46.4 °F 40.4 °F 26.6 °F 46% 30.05 in 10.0 mi NW 13.8 mph 24.2 mph N/A   Clear
8:35 PM 44.6 °F 40.2 °F 26.6 °F 49% 30.05 in 10.0 mi NW 8.1 mph - N/A   Clear
8:55 PM 44.6 °F 40.2 °F 26.6 °F 49% 30.06 in 10.0 mi NW 8.1 mph - N/A   Clear
9:15 PM 42.8 °F 36.6 °F 28.4 °F 57% 30.07 in 10.0 mi NW 11.5 mph - N/A   Clear
9:35 PM 44.6 °F 38.1 °F 28.4 °F 53% 30.07 in 10.0 mi NW 13.8 mph 18.4 mph N/A   Clear
9:55 PM 44.6 °F 38.1 °F 28.4 °F 53% 30.08 in 10.0 mi NNW 13.8 mph 19.6 mph N/A   Clear
10:15 PM 44.6 °F 37.4 °F 30.2 °F 57% 30.08 in 10.0 mi NW 16.1 mph - N/A   Clear
10:35 PM 44.6 °F 38.8 °F 30.2 °F 57% 30.08 in 10.0 mi NW 11.5 mph 17.3 mph N/A   Clear
10:55 PM 44.6 °F 40.2 °F 30.2 °F 57% 30.08 in 10.0 mi NW 8.1 mph - N/A   Clear
11:15 PM 44.6 °F 38.8 °F 30.2 °F 57% 30.08 in 10.0 mi NW 11.5 mph 16.1 mph N/A   Clear
11:35 PM 44.6 °F 37.4 °F 30.2 °F 57% 30.08 in 10.0 mi NW 16.1 mph 21.9 mph N/A   Clear
11:55 PM 44.6 °F 38.1 °F 30.2 °F 57% 30.08 in 10.0 mi NW 13.8 mph 17.3 mph N/A   Clear